Hourly Data Report for October 11, 2015

All times are specified in Local Standard Time (LST). Add 1 hour to adjust for Daylight Saving Time where and when it is observed.

QIKIQTARJUAQ A
NUNAVUT

67°32'48.000" N
64°01'54.000" W
5.50 m
2400577
YVM

Download Data

Hourly Data (October 2015)
Hourly Data Report for October 11, 2015
Temp Definition
°C
Dew Point Temp Definition
°C
Rel Hum Definition
%
Wind Dir Definition
10's deg

Wind Spd Definition
km/h
Visibility Definition
km
Stn Press Definition
kPa
Hmdx Definition


Wind Chill Definition


Weather Definition


TIME
00:00 Legend Double Dagger -6.8 -8.8 86 13 8 16.1 100.43   -11 LegendNANA
01:00 Legend Double Dagger -6.3 -8.5 85 15 8 16.1 100.46   -10 LegendNANA
02:00 Legend Double Dagger -6.0 -8.0 86 13 8 16.1 100.47   -10 LegendNANA
03:00 Legend Double Dagger -4.4 -8.5 73 20 18 16.1 100.46   -10 LegendNANA
04:00 Legend Double Dagger -5.0 -8.3 78 20 15 16.1 100.47   -11 LegendNANA
05:00 Legend Double Dagger -4.8 -8.3 77 18 9 16.1 100.47   -9 LegendNANA
06:00 Legend Double Dagger -4.5 -8.7 73 21 15 16.1 100.44   -10 LegendNANA
07:00 Legend Double Dagger -5.7 -8.8 79 16 5 16.1 100.45   -8 LegendNANA
08:00 Legend Double Dagger -5.8 -8.5 81 LegendMM 4 16.1 100.43   -8 LegendNANA
09:00 Legend Double Dagger -5.4 -8.2 81 11 5 16.1 100.40   -8 LegendNANA
10:00 Legend Double Dagger -5.8 -8.7 80 LegendMM 4 16.1 100.36   -8 LegendNANA
11:00 Legend Double Dagger -4.7 -7.9 78 13 4 16.1 100.30   -6 LegendNANA
12:00 Legend Double Dagger -3.6 -6.9 78   0 16.1 100.28     LegendNANA
13:00 Legend Double Dagger -3.2 -5.8 83 23 4 16.1 100.21   -5 LegendNANA
14:00 Legend Double Dagger -2.9 -5.4 83 20 8 16.1 100.17   -6 LegendNANA
15:00 Legend Double Dagger -2.2 -5.0 81 20 11 16.1 100.13   -6 LegendNANA
16:00 Legend Double Dagger -2.2 -5.1 80 LegendMM 4 16.1 100.10   -4 Snow
17:00 Legend Double Dagger -2.0 -5.2 79 21 13 16.1 100.05   -6 LegendNANA
18:00 Legend Double Dagger -1.8 -5.1 78 21 11 16.1 100.02   -6 Snow
19:00 Legend Double Dagger -2.4 -3.5 92 LegendMM 4 2.4 99.99   -4 Snow
20:00 Legend Double Dagger -2.5 -3.6 92   0 14.5 99.92     Snow
21:00 Legend Double Dagger -2.0 -2.8 94   0 16.1 99.85     LegendNANA
22:00 Legend Double Dagger -1.6 -2.6 93 LegendMM 4 16.1 99.80   -3 LegendNANA
23:00 Legend Double Dagger -1.5 -2.3 94 LegendMM 5 16.1 99.74   -3 LegendNANA

Notes on Data Quality.

Legend

  • E = Estimated
  • M = Missing
  • NA = Not Available
  • ‡ = Partner data that is not subject to review by the National Climate Archives
Date modified: